• In Belarus
  • List of Countries
  • For 7 days
  • Water Temperature
  • Satellite Maps
  • Weather Map
  • Weather Widgets
  • user-avatar
    Login

    Hourly Weather Fastiv

    Today, 24 September, Monday

    Time Temperature Precipitation Wind Pressure Humidity
    00:00 +11°C° 0 mm 4 mps 742 mmHg 65%
    01:00 +12°C° 0 mm 5 mps 742 mmHg 61%
    02:00 +11°C° 0 mm 6 mps 741 mmHg 58%
    03:00 +11°C° 0 mm 7 mps 740 mmHg 58%
    04:00 +12°C° 0 mm 8 mps 739 mmHg 57%
    05:00 +12°C° 0 mm 9 mps 738 mmHg 57%
    06:00 +12°C° 0.5 mm 9 mps 738 mmHg 63%
    07:00 +12°C° 0.5 mm 9 mps 737 mmHg 69%
    08:00 +12°C° 0.5 mm 8 mps 736 mmHg 76%
    09:00 +13°C° 1.1 mm 8 mps 736 mmHg 79%
    10:00 +13°C° 1.1 mm 8 mps 736 mmHg 82%
    11:00 +15°C° 1.1 mm 8 mps 736 mmHg 85%
    12:00 +13°C° 0.3 mm 8 mps 737 mmHg 83%
    13:00 +12°C° 0.3 mm 8 mps 737 mmHg 81%
    14:00 +11°C° 0.3 mm 8 mps 738 mmHg 78%
    15:00 +10°C° 0 mm 8 mps 738 mmHg 76%
    16:00 +10°C° 0 mm 7 mps 739 mmHg 74%
    17:00 +10°C° 0 mm 7 mps 739 mmHg 73%
    18:00 +9°C° 0 mm 6 mps 740 mmHg 74%
    19:00 +9°C° 0 mm 6 mps 740 mmHg 76%
    20:00 +8°C° 0 mm 5 mps 740 mmHg 77%
    21:00 +8°C° 0 mm 5 mps 741 mmHg 77%
    22:00 +7°C° 0 mm 5 mps 741 mmHg 78%
    23:00 +7°C° 0 mm 6 mps 741 mmHg 78%

    Tomorrow, 25 September, Tuesday

    Time Temperature Precipitation Wind Pressure Humidity
    00:00 +7°C° 0 mm 6 mps 741 mmHg 78%
    01:00 +5°C° 0 mm 6 mps 741 mmHg 78%
    02:00 +5°C° 0 mm 6 mps 741 mmHg 79%
    03:00 +5°C° 0 mm 6 mps 742 mmHg 80%
    04:00 +5°C° 0 mm 6 mps 742 mmHg 81%
    05:00 +5°C° 0 mm 6 mps 742 mmHg 82%
    06:00 +5°C° 0.7 mm 7 mps 742 mmHg 83%
    07:00 +5°C° 0.7 mm 7 mps 743 mmHg 84%
    08:00 +5°C° 0.7 mm 8 mps 744 mmHg 85%
    09:00 +5°C° 0.8 mm 8 mps 744 mmHg 84%
    10:00 +5°C° 0.8 mm 8 mps 745 mmHg 83%
    11:00 +5°C° 0.8 mm 8 mps 746 mmHg 81%
    12:00 +6°C° 0.1 mm 8 mps 746 mmHg 77%
    13:00 +6°C° 0.1 mm 8 mps 747 mmHg 73%
    14:00 +8°C° 0.1 mm 7 mps 747 mmHg 69%
    15:00 +8°C° 0 mm 6 mps 747 mmHg 67%
    16:00 +8°C° 0 mm 6 mps 748 mmHg 64%
    17:00 +8°C° 0 mm 5 mps 748 mmHg 62%
    18:00 +7°C° 0 mm 5 mps 749 mmHg 65%
    19:00 +6°C° 0 mm 5 mps 750 mmHg 67%
    20:00 +5°C° 0 mm 5 mps 750 mmHg 70%
    21:00 +5°C° 0 mm 5 mps 751 mmHg 71%
    22:00 +5°C° 0 mm 5 mps 751 mmHg 72%
    23:00 +3°C° 0 mm 5 mps 752 mmHg 73%

    Day after tomorrow, 26 September, Wednesday

    Time Temperature Precipitation Wind Pressure Humidity
    00:00 +3°C° 0 mm 5 mps 752 mmHg 74%
    01:00 +3°C° 0 mm 5 mps 753 mmHg 75%
    02:00 +3°C° 0 mm 4 mps 753 mmHg 76%
    03:00 +3°C° 0 mm 4 mps 753 mmHg 76%
    04:00 +3°C° 0 mm 4 mps 754 mmHg 76%
    05:00 +1°C° 0 mm 4 mps 754 mmHg 76%
    06:00 +3°C° 0 mm 4 mps 755 mmHg 72%
    07:00 +3°C° 0 mm 5 mps 755 mmHg 68%
    08:00 +3°C° 0 mm 5 mps 756 mmHg 63%
    09:00 +6°C° 0 mm 5 mps 756 mmHg 57%
    10:00 +7°C° 0 mm 5 mps 756 mmHg 50%
    11:00 +8°C° 0 mm 5 mps 756 mmHg 44%
    12:00 +9°C° 0 mm 5 mps 756 mmHg 44%
    13:00 +10°C° 0 mm 4 mps 756 mmHg 45%
    14:00 +11°C° 0 mm 4 mps 756 mmHg 45%
    15:00 +10°C° 0 mm 3 mps 756 mmHg 49%
    16:00 +10°C° 0 mm 3 mps 755 mmHg 53%
    17:00 +10°C° 0 mm 2 mps 755 mmHg 58%
    18:00 +8°C° 0 mm 2 mps 755 mmHg 61%
    19:00 +7°C° 0 mm 2 mps 755 mmHg 64%
    20:00 +6°C° 0 mm 2 mps 755 mmHg 68%
    21:00 +5°C° 0 mm 3 mps 755 mmHg 69%
    22:00 +5°C° 0 mm 3 mps 755 mmHg 70%
    23:00 +4°C° 0 mm 3 mps 755 mmHg 71%

    27 September, Thursday

    Time Temperature Precipitation Wind Pressure Humidity
    00:00 +5°C° 0 mm 4 mps 754 mmHg 69%
    01:00 +5°C° 0 mm 4 mps 754 mmHg 67%
    02:00 +5°C° 0 mm 5 mps 753 mmHg 65%
    03:00 +5°C° 0 mm 5 mps 753 mmHg 65%
    04:00 +5°C° 0 mm 5 mps 752 mmHg 64%
    05:00 +4°C° 0 mm 6 mps 752 mmHg 64%
    06:00 +5°C° 0 mm 6 mps 751 mmHg 62%
    07:00 +6°C° 0 mm 7 mps 751 mmHg 61%
    08:00 +6°C° 0 mm 7 mps 751 mmHg 59%
    09:00 +9°C° 0 mm 7 mps 750 mmHg 57%
    10:00 +11°C° 0 mm 7 mps 750 mmHg 54%
    11:00 +12°C° 0 mm 7 mps 750 mmHg 52%
    12:00 +14°C° 0 mm 7 mps 750 mmHg 52%
    13:00 +14°C° 0 mm 7 mps 749 mmHg 53%
    14:00 +15°C° 0 mm 7 mps 749 mmHg 53%
    15:00 +15°C° 0 mm 6 mps 749 mmHg 57%
    16:00 +14°C° 0 mm 5 mps 748 mmHg 61%
    17:00 +14°C° 0 mm 5 mps 748 mmHg 65%
    18:00 +13°C° 0 mm 4 mps 748 mmHg 69%
    19:00 +12°C° 0 mm 4 mps 748 mmHg 72%
    20:00 +11°C° 0 mm 4 mps 748 mmHg 76%
    21:00 +11°C° 0 mm 4 mps 748 mmHg 78%
    22:00 +11°C° 0 mm 4 mps 748 mmHg 80%
    23:00 +11°C° 0 mm 4 mps 748 mmHg 82%

    28 September, Friday

    Time Temperature Precipitation Wind Pressure Humidity
    00:00 +11°C° 0 mm 4 mps 748 mmHg 82%
    01:00 +10°C° 0 mm 4 mps 747 mmHg 83%
    02:00 +10°C° 0 mm 4 mps 747 mmHg 83%
    03:00 +10°C° 0 mm 4 mps 747 mmHg 84%
    04:00 +10°C° 0 mm 4 mps 746 mmHg 84%
    05:00 +10°C° 0 mm 4 mps 746 mmHg 85%
    06:00 +11°C° 0 mm 4 mps 746 mmHg 81%
    07:00 +10°C° 0 mm 5 mps 746 mmHg 78%
    08:00 +12°C° 0 mm 5 mps 746 mmHg 74%
    09:00 +14°C° 0 mm 6 mps 746 mmHg 70%
    10:00 +16°C° 0 mm 6 mps 746 mmHg 65%
    11:00 +19°C° 0 mm 6 mps 746 mmHg 60%
    12:00 +20°C° 0 mm 6 mps 746 mmHg 59%
    13:00 +21°C° 0 mm 6 mps 746 mmHg 58%
    14:00 +21°C° 0 mm 6 mps 745 mmHg 57%
    15:00 +20°C° 0 mm 5 mps 745 mmHg 63%
    16:00 +19°C° 0 mm 4 mps 745 mmHg 68%
    17:00 +18°C° 0 mm 3 mps 745 mmHg 73%
    18:00 +17°C° 0 mm 3 mps 746 mmHg 77%
    19:00 +16°C° 0 mm 2 mps 746 mmHg 81%
    20:00 +15°C° 0 mm 2 mps 746 mmHg 86%
    21:00 +14°C° 0 mm 2 mps 746 mmHg 86%
    22:00 +14°C° 0 mm 1 mps 746 mmHg 87%
    23:00 +14°C° 0 mm 1 mps 747 mmHg 88%

    29 September, Saturday

    Time Temperature Precipitation Wind Pressure Humidity
    00:00 +14°C° 0.1 mm 1 mps 747 mmHg 89%
    01:00 +14°C° 0.1 mm 1 mps 747 mmHg 89%
    02:00 +14°C° 0.1 mm 1 mps 747 mmHg 90%
    03:00 +14°C° 0.4 mm 1 mps 747 mmHg 91%
    04:00 +13°C° 0.4 mm 1 mps 746 mmHg 91%
    05:00 +13°C° 0.4 mm 1 mps 746 mmHg 92%
    06:00 +13°C° 1.2 mm 2 mps 746 mmHg 91%
    07:00 +11°C° 1.2 mm 3 mps 746 mmHg 91%
    08:00 +11°C° 1.2 mm 4 mps 746 mmHg 91%
    09:00 +10°C° 2.6 mm 4 mps 747 mmHg 91%
    10:00 +10°C° 2.6 mm 4 mps 747 mmHg 90%
    11:00 +8°C° 2.6 mm 4 mps 747 mmHg 89%
    12:00 +8°C° 1.4 mm 4 mps 748 mmHg 88%
    13:00 +9°C° 1.4 mm 3 mps 748 mmHg 87%
    14:00 +9°C° 1.4 mm 3 mps 748 mmHg 86%
    15:00 +9°C° 0.2 mm 3 mps 748 mmHg 84%
    16:00 +9°C° 0.2 mm 2 mps 749 mmHg 82%
    17:00 +10°C° 0.2 mm 2 mps 749 mmHg 81%
    18:00 +9°C° 0 mm 2 mps 750 mmHg 83%
    19:00 +8°C° 0 mm 2 mps 750 mmHg 85%
    20:00 +7°C° 0 mm 2 mps 750 mmHg 87%
    21:00 +7°C° 0 mm 2 mps 751 mmHg 88%
    22:00 +7°C° 0 mm 2 mps 751 mmHg 88%
    23:00 +6°C° 0 mm 2 mps 751 mmHg 89%
    Show more

    3.3.7123123